Radiation Dose at Monitoring Post of Fukushima Daini Nuclear Power Station
Date,Time,MP-1(microSv/h),MP-2(microSv/h),MP-3(microSv/h),MP-4(microSv/h),MP-5(microSv/h),MP-6(microSv/h),MP-7(microSv/h),Wind Direction,Wind Velocity(m/s),Rain
2018/03/03,00:00,0.328,0.203,0.333,0.317,0.303,0.167,0.100,west,5.1,No
2018/03/03,00:10,0.328,0.204,0.335,0.316,0.301,0.167,0.100,west,5.6,No
2018/03/03,00:20,0.329,0.203,0.333,0.317,0.303,0.168,0.100,west,4.0,No
2018/03/03,00:30,0.329,0.204,0.332,0.317,0.302,0.168,0.101,north-northwest,0.6,No
2018/03/03,00:40,0.328,0.203,0.332,0.316,0.303,0.167,0.100,northwest,1.2,No
2018/03/03,00:50,0.329,0.204,0.333,0.317,0.303,0.167,0.100,-,CALM,No
2018/03/03,01:00,0.328,0.204,0.334,0.315,0.302,0.168,0.101,southwest,2.1,No
2018/03/03,01:10,0.329,0.203,0.333,0.316,0.302,0.167,0.100,-,CALM,No
2018/03/03,01:20,0.330,0.203,0.334,0.316,0.301,0.167,0.100,west-northwest,0.6,No
2018/03/03,01:30,0.328,0.204,0.334,0.316,0.301,0.167,0.100,west,1.6,No
2018/03/03,01:40,0.328,0.204,0.334,0.317,0.301,0.167,0.100,north,1.2,No
2018/03/03,01:50,0.330,0.203,0.334,0.316,0.302,0.167,0.100,north-northeast,1.2,No
2018/03/03,02:00,0.328,0.203,0.333,0.315,0.301,0.168,0.099,north-northeast,1.0,No
2018/03/03,02:10,0.330,0.203,0.334,0.316,0.304,0.167,0.100,north,0.9,No
2018/03/03,02:20,0.329,0.203,0.332,0.316,0.302,0.166,0.100,northwest,0.6,No
2018/03/03,02:30,0.328,0.204,0.333,0.317,0.301,0.168,0.101,-,CALM,No
2018/03/03,02:40,0.328,0.204,0.334,0.316,0.302,0.167,0.100,north,1.9,No
2018/03/03,02:50,0.329,0.204,0.334,0.316,0.302,0.167,0.099,north-northwest,2.3,No
2018/03/03,03:00,0.329,0.203,0.333,0.316,0.302,0.167,0.100,north-northwest,1.8,No
2018/03/03,03:10,0.331,0.203,0.334,0.316,0.302,0.167,0.100,northwest,1.5,No
2018/03/03,03:20,0.328,0.203,0.334,0.315,0.302,0.167,0.100,north-northwest,1.1,No
2018/03/03,03:30,0.330,0.204,0.332,0.316,0.300,0.167,0.100,-,CALM,No
2018/03/03,03:40,0.329,0.204,0.334,0.315,0.301,0.166,0.100,southwest,0.9,No
2018/03/03,03:50,0.329,0.203,0.334,0.315,0.302,0.167,0.100,-,CALM,No
2018/03/03,04:00,0.330,0.203,0.335,0.315,0.303,0.167,0.101,south-southwest,1.2,No
2018/03/03,04:10,0.330,0.204,0.333,0.317,0.302,0.167,0.100,-,CALM,No
2018/03/03,04:20,0.329,0.204,0.333,0.316,0.300,0.168,0.101,-,CALM,No
2018/03/03,04:30,0.329,0.203,0.334,0.315,0.302,0.167,0.101,north,1.1,No
2018/03/03,04:40,0.328,0.204,0.333,0.317,0.302,0.166,0.100,north-northwest,1.3,No
2018/03/03,04:50,0.330,0.204,0.333,0.316,0.302,0.167,0.101,north-northwest,2.6,No
2018/03/03,05:00,0.329,0.204,0.334,0.316,0.302,0.166,0.100,northwest,3.8,No
2018/03/03,05:10,0.330,0.204,0.334,0.317,0.301,0.167,0.099,northwest,5.8,No
2018/03/03,05:20,0.329,0.203,0.333,0.317,0.300,0.167,0.100,west-northwest,6.8,No
2018/03/03,05:30,0.329,0.203,0.332,0.316,0.302,0.167,0.100,west-northwest,7.1,No
2018/03/03,05:40,0.329,0.202,0.334,0.316,0.302,0.167,0.101,south-southeast,4.0,No
2018/03/03,05:50,0.329,0.203,0.334,0.317,0.302,0.166,0.101,south-southeast,3.9,No
2018/03/03,06:00,0.329,0.204,0.334,0.316,0.301,0.167,0.100,south-southwest,4.7,No
2018/03/03,06:10,0.329,0.203,0.334,0.316,0.301,0.167,0.100,south-southwest,5.2,No
2018/03/03,06:20,0.329,0.203,0.332,0.315,0.301,0.167,0.099,south,4.8,No
2018/03/03,06:30,0.328,0.203,0.333,0.316,0.301,0.167,0.100,south-southwest,5.3,No
2018/03/03,06:40,0.329,0.203,0.334,0.316,0.301,0.166,0.100,south-southwest,5.8,No
2018/03/03,06:50,0.328,0.203,0.333,0.316,0.301,0.167,0.100,south,2.5,No
2018/03/03,07:00,0.330,0.204,0.334,0.316,0.301,0.167,0.099,south-southeast,1.6,No
2018/03/03,07:10,0.329,0.203,0.334,0.316,0.300,0.167,0.100,south-southeast,1.9,No
2018/03/03,07:20,0.330,0.204,0.334,0.316,0.302,0.167,0.100,south,2.8,No
2018/03/03,07:30,0.328,0.204,0.334,0.315,0.301,0.167,0.100,south-southeast,2.4,No
2018/03/03,07:40,0.329,0.203,0.333,0.314,0.302,0.167,0.099,southeast,2.0,No
2018/03/03,07:50,0.329,0.203,0.334,0.317,0.302,0.168,0.100,south-southeast,1.2,No
2018/03/03,08:00,0.329,0.205,0.333,0.317,0.301,0.167,0.100,east-southeast,1.1,No
2018/03/03,08:10,0.329,0.203,0.334,0.314,0.299,0.167,0.100,southeast,1.5,No
2018/03/03,08:20,0.329,0.204,0.333,0.317,0.302,0.166,0.099,south-southeast,1.4,No
2018/03/03,08:30,0.329,0.203,0.333,0.316,0.303,0.167,0.100,southeast,2.0,No
2018/03/03,08:40,0.330,0.202,0.332,0.314,0.302,0.166,0.099,south-southeast,1.1,No
2018/03/03,08:50,0.328,0.203,0.333,0.315,0.301,0.167,0.100,southeast,1.6,No
2018/03/03,09:00,0.329,0.202,0.333,0.314,0.303,0.167,0.100,east-southeast,1.9,No
2018/03/03,09:10,0.329,0.202,0.332,0.314,0.302,0.168,0.099,southeast,1.7,No
2018/03/03,09:20,0.328,0.203,0.334,0.316,0.301,0.167,0.099,east-southeast,1.6,No
2018/03/03,09:30,0.329,0.203,0.333,0.314,0.302,0.166,0.099,east,1.5,No
2018/03/03,09:40,0.327,0.203,0.332,0.316,0.301,0.166,0.100,east,1.6,No
2018/03/03,09:50,0.328,0.202,0.333,0.314,0.302,0.166,0.099,east,1.4,No
2018/03/03,10:00,0.325,0.203,0.334,0.316,0.303,0.166,0.100,east-southeast,2.0,No
2018/03/03,10:10,0.327,0.202,0.334,0.314,0.301,0.166,0.099,south-southeast,2.7,No
2018/03/03,10:20,0.324,0.203,0.333,0.315,0.303,0.166,0.101,south-southeast,3.7,No
2018/03/03,10:30,0.329,0.203,0.333,0.316,0.301,0.166,0.100,south-southeast,4.4,No
2018/03/03,10:40,0.325,0.203,0.333,0.316,0.303,0.167,0.100,southeast,3.9,No
2018/03/03,10:50,0.327,0.203,0.332,0.316,0.301,0.166,0.099,south,7.4,No
2018/03/03,11:00,0.325,0.203,0.332,0.315,0.303,0.166,0.101,south,9.0,No
2018/03/03,11:10,0.328,0.203,0.333,0.315,0.302,0.167,0.099,south,8.4,No
2018/03/03,11:20,0.327,0.202,0.330,0.315,0.303,0.167,0.100,south,9.5,No
2018/03/03,11:30,0.327,0.203,0.332,0.318,0.301,0.167,0.100,south,9.2,No
2018/03/03,11:40,0.329,0.204,0.332,0.316,0.303,0.167,0.100,south,11.1,No
2018/03/03,11:50,0.327,0.203,0.332,0.316,0.302,0.166,0.101,south,10.3,No
2018/03/03,12:00,0.328,0.204,0.331,0.316,0.301,0.167,0.099,south,11.5,No
2018/03/03,12:10,0.326,0.204,0.332,0.316,0.302,0.166,0.101,south,10.9,No
2018/03/03,12:20,0.329,0.203,0.331,0.316,0.302,0.167,0.100,south,13.1,No
2018/03/03,12:30,0.328,0.204,0.332,0.315,0.305,0.168,0.100,south,11.1,No
2018/03/03,12:40,0.330,0.202,0.333,0.318,0.303,0.167,0.100,south,12.8,No
2018/03/03,12:50,0.327,0.204,0.333,0.316,0.304,0.168,0.099,south,11.2,No
2018/03/03,13:00,0.328,0.203,0.332,0.317,0.302,0.168,0.100,south,10.7,No
2018/03/03,13:10,0.327,0.203,0.332,0.316,0.303,0.166,0.100,south,11.7,No
2018/03/03,13:20,0.330,0.203,0.333,0.316,0.303,0.166,0.099,south,12.6,No
2018/03/03,13:30,0.326,0.203,0.331,0.316,0.303,0.166,0.100,south,12.3,No
2018/03/03,13:40,0.328,0.204,0.332,0.318,0.304,0.168,0.100,south,10.1,No
2018/03/03,13:50,0.328,0.204,0.333,0.318,0.303,0.167,0.099,south,11.5,No
2018/03/03,14:00,0.329,0.203,0.331,0.315,0.305,0.167,0.101,south,10.1,No
2018/03/03,14:10,0.328,0.204,0.333,0.319,0.301,0.167,0.101,south,9.6,No
2018/03/03,14:20,0.328,0.204,0.331,0.316,0.304,0.166,0.100,south,11.1,No
2018/03/03,14:30,0.329,0.203,0.332,0.318,0.303,0.166,0.100,south,11.5,No
2018/03/03,14:40,0.327,0.203,0.333,0.318,0.305,0.167,0.101,south,10.9,No
2018/03/03,14:50,0.330,0.205,0.332,0.316,0.302,0.167,0.100,south,11.1,No
2018/03/03,15:00,0.327,0.203,0.336,0.318,0.304,0.167,0.100,south,10.3,No
2018/03/03,15:10,0.328,0.204,0.334,0.317,0.303,0.168,0.100,south,9.5,No
2018/03/03,15:20,0.328,0.204,0.334,0.316,0.304,0.169,0.100,south,11.2,No
2018/03/03,15:30,0.329,0.204,0.334,0.319,0.306,0.167,0.101,south,9.2,No
2018/03/03,15:40,0.328,0.205,0.334,0.316,0.303,0.167,0.100,south,9.0,No
2018/03/03,15:50,0.327,0.203,0.335,0.316,0.306,0.168,0.100,south,9.8,No
2018/03/03,16:00,0.330,0.204,0.335,0.318,0.304,0.167,0.100,south,8.9,No
2018/03/03,16:10,0.329,0.204,0.334,0.316,0.304,0.168,0.100,south,7.8,No
2018/03/03,16:20,0.328,0.206,0.335,0.317,0.307,0.168,0.100,south,10.3,No
2018/03/03,16:30,0.329,0.203,0.333,0.318,0.302,0.167,0.100,south,9.2,No
2018/03/03,16:40,0.329,0.205,0.332,0.319,0.305,0.168,0.100,south-southwest,8.7,No
2018/03/03,16:50,0.328,0.204,0.334,0.317,0.305,0.168,0.100,south,8.7,No
2018/03/03,17:00,0.329,0.204,0.334,0.318,0.303,0.168,0.100,south,9.8,No
2018/03/03,17:10,0.327,0.205,0.333,0.318,0.303,0.168,0.100,south,10.4,No
2018/03/03,17:20,0.329,0.204,0.334,0.318,0.304,0.167,0.100,south,10.6,No
2018/03/03,17:30,0.329,0.203,0.332,0.317,0.303,0.166,0.100,south,12.0,No
2018/03/03,17:40,0.328,0.205,0.334,0.318,0.305,0.169,0.100,south,11.5,No
2018/03/03,17:50,0.328,0.205,0.334,0.316,0.304,0.168,0.100,south,11.1,No
2018/03/03,18:00,0.329,0.204,0.334,0.317,0.303,0.168,0.100,south,8.8,No
2018/03/03,18:10,0.328,0.205,0.333,0.318,0.305,0.169,0.100,south,8.2,No
2018/03/03,18:20,0.329,0.205,0.334,0.318,0.304,0.167,0.099,south,7.7,No
2018/03/03,18:30,0.329,0.202,0.333,0.317,0.303,0.168,0.101,south,7.0,No
2018/03/03,18:40,0.328,0.204,0.333,0.317,0.303,0.168,0.100,south,5.9,No
2018/03/03,18:50,0.329,0.205,0.334,0.318,0.303,0.168,0.100,south,5.8,No
2018/03/03,19:00,0.331,0.203,0.333,0.318,0.303,0.168,0.100,south,5.8,No
2018/03/03,19:10,0.328,0.203,0.334,0.318,0.302,0.167,0.100,south,5.8,No
2018/03/03,19:20,0.327,0.204,0.334,0.317,0.302,0.168,0.100,south,5.9,No
2018/03/03,19:30,0.330,0.203,0.334,0.317,0.303,0.168,0.101,south,6.8,No
2018/03/03,19:40,0.329,0.203,0.333,0.318,0.303,0.166,0.100,south,6.1,No
2018/03/03,19:50,0.329,0.204,0.335,0.316,0.303,0.168,0.100,south-southwest,4.4,No
2018/03/03,20:00,0.330,0.205,0.334,0.317,0.303,0.168,0.100,south,5.3,No
2018/03/03,20:10,0.329,0.202,0.333,0.317,0.304,0.167,0.100,south,5.9,No
2018/03/03,20:20,0.329,0.203,0.334,0.316,0.302,0.167,0.101,south,6.1,No
2018/03/03,20:30,0.330,0.205,0.333,0.317,0.303,0.166,0.100,south,6.0,No
2018/03/03,20:40,0.329,0.204,0.333,0.317,0.303,0.168,0.100,south,6.1,No
2018/03/03,20:50,0.327,0.204,0.334,0.318,0.302,0.168,0.101,south,5.8,No
2018/03/03,21:00,0.329,0.203,0.334,0.318,0.303,0.168,0.100,south,5.6,No
2018/03/03,21:10,0.330,0.204,0.333,0.318,0.304,0.168,0.100,south,5.0,No
2018/03/03,21:20,0.329,0.204,0.335,0.317,0.302,0.167,0.100,south,5.6,No
2018/03/03,21:30,0.328,0.205,0.335,0.317,0.303,0.168,0.101,south,4.7,No
2018/03/03,21:40,0.330,0.205,0.332,0.319,0.303,0.168,0.100,south,4.2,No
2018/03/03,21:50,0.329,0.203,0.334,0.317,0.303,0.167,0.100,south,4.2,No
2018/03/03,22:00,0.330,0.204,0.335,0.317,0.302,0.168,0.101,south-southwest,4.3,No
2018/03/03,22:10,0.331,0.205,0.333,0.318,0.302,0.168,0.101,south-southwest,5.2,No
2018/03/03,22:20,0.329,0.204,0.333,0.317,0.303,0.167,0.100,south-southwest,3.7,No
2018/03/03,22:30,0.330,0.205,0.332,0.317,0.304,0.168,0.101,south,3.7,No
2018/03/03,22:40,0.330,0.205,0.335,0.318,0.302,0.167,0.101,south-southwest,3.5,No
2018/03/03,22:50,0.330,0.204,0.333,0.318,0.303,0.167,0.101,south-southwest,3.4,No
2018/03/03,23:00,0.330,0.204,0.333,0.319,0.303,0.169,0.100,south-southwest,3.8,No
2018/03/03,23:10,0.331,0.204,0.334,0.319,0.302,0.168,0.101,south-southwest,3.8,No
2018/03/03,23:20,0.330,0.203,0.335,0.318,0.302,0.168,0.102,south-southwest,3.0,No
2018/03/03,23:30,0.329,0.204,0.335,0.319,0.302,0.168,0.102,south-southwest,4.2,No
2018/03/03,23:40,0.331,0.204,0.334,0.318,0.303,0.168,0.101,south-southwest,4.1,No
2018/03/03,23:50,0.330,0.204,0.334,0.318,0.303,0.167,0.102,south-southwest,4.3,No
